Location: Gleizolles
(44.4833°N, 6.7667°E)
Time: 00:39:42
(UTC+00:00)

Vanguard 2 Rocket - Pass Details

Date: 21 June 2024
Orbit: 555 x 3302 km, 32.9° (Epoch: 24 July)

Event Time Altitude Azimuth Distance (km) Brightness Sun altitude
Rises 03:38:07 0° 248° (WSW) 7,181 - -2.3°
Exits shadow 03:38:20 - 248° (WSW) 7,140 10.8 -2.3°
Reaches altitude 10° 03:43:01 10° 244° (WSW) 6,242 10.5 -1.6°
Maximum altitude 04:02:10 55° 175° (S) 3,392 9.7 1.2°
Drops below altitude 10° 04:16:19 10° 103° (ESE) 4,758 11.4 3.4°
Sets 04:19:28 0° 99° (E) 5,446 11.8 3.9°
